Weather History for Lapeer, MI

Change the Weather History Date:

Tuesday, November 20, 2012

  Actual Average (KFNT) Record (KFNT)
Temperature  
Mean Temperature 44 °F 37 °F  
Max Temperature 56 °F 45 °F 68 °F (1953)
Min Temperature 31 °F 30 °F 14 °F (1969)
Degree Days  
Heating Degree Days 22 28  
Month to date heating degree days 483  
Since 1 July heating degree days 1179  
Cooling Degree Days 0 0  
Month to date cooling degree days 0  
Year to date cooling degree days 531  
Moisture  
Dew Point 40 °F    
Average Humidity 87    
Maximum Humidity 100    
Minimum Humidity 52    
Precipitation  
Precipitation 0.00 in 0.09 in 1.40 in (1942)
Month to date precipitation 1.83  
Year to date precipitation 28.61  
Snow  
Snow - 0.10 in 4.00 in (1986)
Month to date snowfall 1.0  
Since 1 July snowfall 1.4  
Since 1 September snowfall 1.4  
Snow Depth -    
Sea Level Pressure  
Sea Level Pressure 30.13 in    
Wind  
Wind Speed 0 mph ()    
Max Wind Speed 6 mph    
Max Gust Speed -    
Visibility 7.5 miles    
Events Rain    
T = Trace of Precipitation, MM = Missing Value Source: Averaged Metar Reports

Daily Weather History Graph

Daily Weather History Graph

Search for Another Location

Airport:

Trip Planner

Search our weather history database for the weather conditions in past years. The results will help you decide how hot, cold, wet, or windy it might be!

Date:

Astronomy

Nov. 20, 2012 Rise Set
Actual Time 7:32 AM EST 5:04 PM EST
Civil Twilight 7:01 AM EST 5:35 PM EST
Nautical Twilight 6:26 AM EST 6:10 PM EST
Astronomical Twilight 5:52 AM EST 6:44 PM EST
Moon 1:00 PM EST (11/20) No Moon Set
Length of Visible Light 10h 34m
Length of Day
9h 32m
Waxing Crescent, 51% of the Moon is Illuminated
Nov 20
Waxing Crescent
Nov 28
Full
Dec 6
Last Quarter
Dec 13
New
Dec 20
First Quarter

Hourly Weather History & Observations

Time (EST) Temp. Dew Point Humidity Pressure Visibility Wind Dir Wind Speed Gust Speed Precip Events Conditions
12:13 AM 32.9 °F 32.9 °F 100% 30.18 in 4.0 mi Calm Calm - N/A   Clear
12:33 AM 32.7 °F 32.7 °F 100% 30.18 in 5.0 mi Calm Calm - N/A   Clear
12:53 AM 32.0 °F 32.0 °F 100% 30.17 in 4.0 mi Calm Calm - N/A   Clear
1:13 AM 32.4 °F 32.4 °F 100% 30.17 in 3.0 mi Calm Calm - N/A   Clear
1:33 AM 32.9 °F 32.9 °F 100% 30.17 in 4.0 mi Calm Calm - N/A   Clear
1:53 AM 32.4 °F 32.4 °F 100% 30.16 in 4.0 mi Calm Calm - N/A   Clear
2:13 AM 31.8 °F 31.8 °F 100% 30.16 in 4.0 mi Calm Calm - N/A   Clear
2:32 AM 32.4 °F 32.4 °F 100% 30.16 in 5.0 mi Calm Calm - N/A   Clear
2:53 AM 33.3 °F 33.3 °F 100% 30.15 in 5.0 mi Calm Calm - N/A   Mostly Cloudy
3:13 AM 32.9 °F 32.9 °F 100% 30.15 in 4.0 mi Calm Calm - N/A   Overcast
3:33 AM 33.6 °F 33.6 °F 100% 30.14 in 7.0 mi Calm Calm - N/A   Overcast
3:53 AM 33.3 °F 33.3 °F 100% 30.14 in 5.0 mi Calm Calm - N/A   Mostly Cloudy
4:13 AM 33.6 °F 33.6 °F 100% 30.13 in 4.0 mi Calm Calm - N/A   Scattered Clouds
4:32 AM 33.1 °F 33.1 °F 100% 30.13 in 3.0 mi Calm Calm - N/A   Mostly Cloudy
4:53 AM 33.3 °F 33.3 °F 100% 30.13 in 5.0 mi Calm Calm - N/A   Overcast
5:13 AM 34.3 °F 34.3 °F 100% 30.13 in 4.0 mi North - - N/A   Overcast
5:33 AM 35.1 °F 35.1 °F 100% 30.14 in 4.0 mi Calm Calm - N/A   Overcast
5:53 AM 34.9 °F 34.9 °F 100% 30.14 in 4.0 mi Calm Calm - N/A   Overcast
6:13 AM 35.6 °F 35.6 °F 100% 30.13 in 5.0 mi Calm Calm - N/A   Overcast
6:33 AM 36.3 °F 36.3 °F 100% 30.13 in 5.0 mi Calm Calm - N/A   Overcast
6:53 AM 36.0 °F 36.0 °F 100% 30.13 in 4.0 mi Calm Calm - N/A   Overcast
7:13 AM 36.3 °F 36.3 °F 100% 30.13 in 4.0 mi Calm Calm - N/A   Overcast
7:33 AM 36.1 °F 36.1 °F 100% 30.13 in 4.0 mi Calm Calm - N/A   Overcast
7:53 AM 36.5 °F 36.5 °F 100% 30.13 in 3.0 mi Calm Calm - N/A   Overcast
8:13 AM 37.8 °F 37.8 °F 100% 30.13 in 3.0 mi Calm Calm - N/A   Overcast
8:33 AM 39.2 °F 39.2 °F 100% 30.13 in 3.0 mi Calm Calm - N/A   Mostly Cloudy
8:53 AM 40.6 °F 40.6 °F 100% 30.13 in 3.0 mi Calm Calm - N/A   Overcast
9:13 AM 42.3 °F 42.3 °F 100% 30.14 in 4.0 mi Calm Calm - N/A   Overcast
9:33 AM 43.3 °F 43.3 °F 100% 30.14 in 5.0 mi Calm Calm - N/A   Overcast
9:53 AM 44.6 °F 44.4 °F 99% 30.13 in 7.0 mi Calm Calm - N/A   Overcast
10:13 AM 46.4 °F 44.2 °F 92% 30.12 in 7.0 mi Calm Calm - N/A   Overcast
10:33 AM 47.8 °F 43.7 °F 86% 30.13 in 7.0 mi Calm Calm - N/A   Scattered Clouds
10:53 AM 49.1 °F 41.7 °F 76% 30.13 in 10.0 mi Calm Calm - N/A   Scattered Clouds
11:13 AM 50.0 °F 42.6 °F 76% 30.13 in 10.0 mi Calm Calm - N/A   Scattered Clouds
11:33 AM 50.9 °F 40.6 °F 68% 30.12 in 10.0 mi Calm Calm - N/A   Scattered Clouds
11:53 AM 51.6 °F 41.2 °F 68% 30.12 in 10.0 mi Calm Calm - N/A   Mostly Cloudy
12:13 PM 51.8 °F 39.4 °F 63% 30.11 in 10.0 mi Calm Calm - N/A   Scattered Clouds
12:33 PM 52.3 °F 39.4 °F 61% 30.10 in 10.0 mi Calm Calm - N/A   Mostly Cloudy
12:53 PM 52.7 °F 39.0 °F 60% 30.10 in 10.0 mi Calm Calm - N/A   Overcast
1:13 PM 54.1 °F 38.1 °F 55% 30.10 in 10.0 mi Calm Calm - N/A   Overcast
1:33 PM 54.5 °F 39.4 °F 57% 30.08 in 10.0 mi Calm Calm - N/A   Overcast
1:53 PM 54.9 °F 39.2 °F 56% 30.08 in 10.0 mi SSE 3.5 mph - N/A   Overcast
2:12 PM 55.0 °F 39.4 °F 56% 30.07 in 10.0 mi SE 3.5 mph - N/A   Mostly Cloudy
2:33 PM 56.3 °F 39.4 °F 53% 30.07 in 10.0 mi ESE 5.8 mph - N/A   Overcast
2:53 PM 56.3 °F 38.8 °F 52% 30.07 in 10.0 mi Calm Calm - N/A   Overcast
3:12 PM 55.4 °F 39.4 °F 55% 30.07 in 10.0 mi Calm Calm - N/A   Overcast
3:33 PM 54.7 °F 38.8 °F 55% 30.08 in 10.0 mi Calm Calm - N/A   Overcast
3:53 PM 53.8 °F 39.2 °F 58% 30.08 in 10.0 mi South 3.5 mph - N/A   Overcast
4:13 PM 53.6 °F 39.0 °F 58% 30.09 in 10.0 mi Calm Calm - N/A   Overcast
4:33 PM 52.5 °F 42.1 °F 68% 30.10 in 10.0 mi Calm Calm - N/A   Overcast
4:53 PM 52.7 °F 40.8 °F 64% 30.11 in 10.0 mi Calm Calm - N/A   Overcast
5:13 PM 50.7 °F 42.1 °F 72% 30.11 in 10.0 mi Calm Calm - N/A   Overcast
5:33 PM 49.5 °F 42.1 °F 76% 30.12 in 10.0 mi Calm Calm - N/A Rain Light Rain
5:53 PM 49.5 °F 42.4 °F 77% 30.12 in 10.0 mi Calm Calm - N/A Rain Light Rain
6:13 PM 49.8 °F 42.3 °F 75% 30.12 in 10.0 mi Calm Calm - N/A Rain Light Rain
6:33 PM 48.4 °F 43.2 °F 82% 30.13 in 10.0 mi Calm Calm - N/A   Overcast
6:53 PM 47.7 °F 46.8 °F 97% 30.13 in 10.0 mi Calm Calm - N/A   Overcast
7:13 PM 47.7 °F 43.3 °F 85% 30.13 in 10.0 mi Calm Calm - N/A   Overcast
7:33 PM 47.3 °F 44.2 °F 89% 30.13 in 10.0 mi Calm Calm - N/A   Overcast
7:53 PM 46.6 °F 45.7 °F 97% 30.14 in 10.0 mi Calm Calm - N/A   Overcast
8:13 PM 46.4 °F 44.4 °F 93% 30.14 in 10.0 mi Calm Calm - N/A   Overcast
8:33 PM 46.4 °F 46.4 °F 100% 30.14 in 10.0 mi Calm Calm - N/A   Overcast
8:53 PM 46.2 °F 46.2 °F 100% 30.14 in 10.0 mi Calm Calm - N/A   Overcast
9:13 PM 46.4 °F 46.4 °F 100% 30.14 in 10.0 mi Calm Calm - N/A   Overcast
9:33 PM 45.9 °F 45.9 °F 100% 30.14 in 10.0 mi Calm Calm - N/A   Overcast
9:53 PM 45.7 °F 45.7 °F 100% 30.14 in 10.0 mi Calm Calm - N/A   Overcast
10:13 PM 46.4 °F 46.4 °F 100% 30.13 in 10.0 mi Calm Calm - N/A   Overcast
10:33 PM 45.3 °F 45.3 °F 100% 30.14 in 10.0 mi Calm Calm - N/A   Overcast
10:53 PM 45.3 °F 45.3 °F 100% 30.14 in 10.0 mi Calm Calm - N/A   Overcast
11:13 PM 45.1 °F 45.1 °F 100% 30.15 in 10.0 mi Calm Calm - N/A   Overcast
11:33 PM 46.2 °F 45.9 °F 99% 30.15 in 10.0 mi Calm Calm - N/A   Overcast
11:53 PM 44.6 °F 44.6 °F 100% 30.15 in 10.0 mi Calm Calm - N/A   Overcast